Flag for U.S.A. Weather past 2 weeks in Grand Prairie, Texas, U.S.A.

Now
81 °F

Clear.


Feels Like: 84 °F
Forecast: 75 / 85 °F
Wind: No wind

Location: Grand Prairie Municipal Airport

Current Time: Sep 17, 2014 at 9:27:21 PM

Latest Report: Sep 17, 2014 at 8:55 PM


Visibility: 10 mi

Pressure: 29.90 "Hg

Humidity: 70%

Dew point: 70 °F

Location of Grand PrairieLocation

Historic Weather in Grand Prairie — Graph

°F

Grand Prairie temperature yesterday

Maximum temperature yesterday: 90 °F (at 5:50 PM)
Minimum temperature yesterday: 73 °F (at 6:50 AM)
Average temperature yesterday: 80 °F

Past Weeks' High & Low Weather Summary

 TemperatureHumidityPressure
High100 °F (Sep 10, 3:50 PM)100% (Sep 12, 10:35 PM)30.30 "Hg (Sep 12, 10:35 PM)
Low34 °F (Sep 13, 4:50 PM)14% (Sep 3, 10:50 AM)29.75 "Hg (Sep 10, 4:50 PM)
Average79 °F65%30.03 "Hg
* Reported Sep 2 8:15 PM — Sep 17 8:15 PM, Grand Prairie, Weather by CustomWeather, © 2014

Note: Actual official high and low records may vary slightly from our data, if they occured in-between our weather recording intervals... More about our weather records

Advertising

Grand Prairie weather history for previous 24 hours

 ConditionsComfort  
Time TempWeatherWind HumidityBarometerVisibility
8:15 PM
Sep 17
82 °FSunny.No wind63%29.90 "Hg10 mi
6:50 PM84 °FSunny.5 mph51%29.88 "Hg10 mi
5:50 PM82 °FSunny.3 mph58%29.88 "Hg10 mi
4:50 PM84 °FScattered clouds.16 mph55%29.88 "Hg10 mi
3:50 PM93 °FSunny.10 mph39%29.87 "Hg10 mi
2:50 PM91 °FScattered clouds.5 mph41%29.90 "Hg10 mi
1:50 PM91 °FSunny.5 mph41%29.93 "Hg10 mi
12:50 PM90 °FSunny.No wind46%29.96 "Hg10 mi
11:50 AM86 °FSunny.No wind55%29.98 "Hg10 mi
10:50 AM81 °FSunny.No wind70%29.99 "Hg10 mi
9:50 AM79 °FSunny.5 mph74%30.00 "Hg10 mi
8:55 AM75 °FSunny.5 mph83%29.99 "Hg10 mi
7:50 AM73 °FClear.No wind94%30.00 "Hg10 mi
6:35 AM73 °FClear.No wind92%29.99 "Hg10 mi
5:55 AM74 °FClear.No wind83%29.98 "Hg10 mi
5:35 AM75 °FClear.No wind82%29.98 "Hg10 mi
5:15 AM75 °FClear.No wind81%29.98 "Hg10 mi
4:55 AM76 °FClear.No wind81%29.98 "Hg10 mi
4:35 AM76 °FClear.No wind80%29.97 "Hg10 mi
4:15 AM76 °FClear.No wind80%29.98 "Hg10 mi
3:55 AM76 °FClear.3 mph79%29.98 "Hg10 mi
3:35 AM77 °FClear.No wind78%29.98 "Hg10 mi
3:15 AM77 °FClear.3 mph76%29.98 "Hg10 mi
2:55 AM78 °FClear.No wind75%29.99 "Hg10 mi
2:35 AM78 °FClear.No wind76%30.00 "Hg10 mi
2:15 AM78 °FClear.No wind75%30.00 "Hg10 mi
1:55 AM79 °FClear.No wind73%30.00 "Hg10 mi
1:35 AM79 °FClear.5 mph73%30.01 "Hg10 mi
1:15 AM79 °FClear.5 mph72%30.01 "Hg10 mi
12:55 AM80 °FClear.5 mph70%30.02 "Hg10 mi
12:35 AM80 °FClear.6 mph68%30.02 "Hg10 mi
12:15 AM80 °FClear.3 mph67%30.02 "Hg10 mi
11:55 PM
Sep 16
81 °FClear.3 mph65%30.03 "Hg10 mi
11:35 PM82 °FClear.5 mph64%30.03 "Hg10 mi
11:15 PM81 °FClear.5 mph64%30.03 "Hg10 mi
10:55 PM82 °FClear.5 mph62%30.03 "Hg10 mi
10:15 PM82 °FClear.3 mph61%30.03 "Hg10 mi
9:55 PM82 °FClear.5 mph60%30.03 "Hg10 mi
9:35 PM82 °FClear.3 mph59%30.03 "Hg10 mi
9:15 PM83 °FClear.3 mph57%30.01 "Hg10 mi
Weather by CustomWeather, © 2014

See weather overviewHow to use our weather pages